Tracking 35334 objects as of 12-Sep-2026
HD Live streaming from Space Station
objects crossing your sky now

STARLINK-6039

Track STARLINK-6039 now!
10-day predictions
STARLINK-6039 is classified as:


NORAD ID: 56319
Int'l Code: 2023-058C
Launch date: April 27, 2023
Source: United States (US)
Launch site: AIR FORCE WESTERN TEST RANGE (AFWTR)
Your satellite tracking list
Your tracking list is empty




NASA's NSSDC Master Catalog

Two Line Element Set (TLE):
1 56319U 23058C   26255.33335648  .00078740  00000-0  47356-2 0  9990
2 56319  97.2852 249.6668 0002117  89.6488 292.4718 15.10499267  5792
Source of the keplerian elements: AFSPC